sat.trackr.live / text

‹ back to catalog

ROCK

NORAD 60474 · 2024-149G

PAYLOAD ACTIVE UNKNOWN

§ Identity

Operator
Country
US
Launch date
2024-08-16
Launch site
AFWTR
Launch vehicle
Mass (kg)
RCS (m²)

External: N2YO · Heavens-Above · Gunter

§ Orbital elements

Epoch: 2026-09-22T17:10:45.301440Z

Period
93.37 min
Inclination
97.3723°
Eccentricity
0.0000658
Mean motion
15.42229226 rev/d
Perigee alt
439.1 km
Apogee alt
440.0 km
Semi-major
6,817.7 km
B*
2.8561e-4
RAAN
350.0064°
Arg perigee
198.0770°
Mean anomaly
162.0454°
Rev number
11,728

§ Raw data

ROCK1 60474U 24149G   26265.71580210  .00012185  00000+0  28561-3 0  99972 60474  97.3723 350.0064 0000658 198.0770 162.0454 15.42229226117289

JSON: /api/v1/satellites/60474 · /tle

For live sub-satellite position, see the globe view (requires WebGL).

§ Visibility from observer

Set your observer location to see the next 7 days of passes ≥ 10°. The values pass through the URL so the page stays shareable.

No JS? Fill the form by hand. The geolocation button needs JavaScript.